Meridian, MS

3:15 PM CDT on August 24, 2016 (GMT -0500)
Meridian Naval Air Station

Weather History for KNMM - November, 2012

Change the Weather History Date:

Tuesday, November 27, 2012

  Actual Average Record
Temperature  
Mean Temperature 52 °F -  
Max Temperature 59 °F 62 °F 77 °F (2001)
Min Temperature 44 °F 41 °F 26 °F (2013)
Degree Days  
Heating Degree Days 13    
Growing Degree Days 2 (Base 50)    
Moisture  
Dew Point 51 °F    
Average Humidity 92    
Maximum Humidity 100    
Minimum Humidity 79    
Precipitation  
Precipitation 0.74 in - - ()
Sea Level Pressure  
Sea Level Pressure 30.19 in    
Wind  
Wind Speed 5 mph (North)    
Max Wind Speed 18 mph    
Max Gust Speed 30 mph    
Visibility 5 miles    
Events Fog , Rain , Thunderstorm    
Averages and records for this station are not official NWS values.
T = Trace of Precipitation, MM = Missing Value Source: NWS Daily Summary

Daily Weather History Graph

Daily Weather History Graph

Search for Another Location

Airport or City:

Trip Planner

Search our weather history database for the weather conditions in past years. The results will help you decide how hot, cold, wet, or windy it might be!

Date:

Astronomy

Nov. 27, 2012 Rise Set
Actual Time 6:35 AM CST 4:48 PM CST
Civil Twilight 6:08 AM CST 5:15 PM CST
Nautical Twilight 5:38 AM CST 5:45 PM CST
Astronomical Twilight 5:08 AM CST 6:15 PM CST
Moon 4:19 PM CST (11/27) 5:41 AM CST (11/27)
Length of Visible Light 11h 07m
Length of Day
10h 13m
Waxing Gibbous, 99% of the Moon is Illuminated
Nov 27
Waxing Gibbous
Nov 28
Full
Dec 6
Last Quarter
Dec 13
New
Dec 19
First Quarter

Hourly Weather History & Observations

Time (CST) Temp. Windchill Dew Point Humidity Pressure Visibility Wind Dir Wind Speed Gust Speed Precip Events Conditions
12:29 AM 59.0 °F - 57.2 °F 94% 30.09 in 4.0 mi Calm Calm - N/A   Scattered Clouds
12:36 AM 59.0 °F - 57.2 °F 94% 30.09 in 6.0 mi SSE 3.5 mph - N/A   Mostly Cloudy
12:56 AM 57.9 °F - 57.0 °F 97% 30.12 in 6.0 mi Calm Calm - N/A   Mostly Cloudy
1:04 AM 57.2 °F - 57.2 °F 100% 30.09 in 1.8 mi Calm Calm - N/A   Mostly Cloudy
1:08 AM 57.2 °F - 55.4 °F 94% 30.09 in 0.8 mi Calm Calm - N/A   Mostly Cloudy
1:12 AM 55.4 °F - 55.4 °F 100% 30.09 in 0.2 mi Calm Calm - N/A Fog Fog
1:43 AM 55.4 °F - 55.4 °F 100% 30.08 in 0.5 mi SE 3.5 mph - N/A Fog Fog
1:50 AM 57.2 °F - 55.4 °F 94% 30.08 in 1.0 mi SE 4.6 mph - N/A   Mostly Cloudy
1:53 AM 57.2 °F - 55.4 °F 94% 30.08 in 2.5 mi SE 3.5 mph - N/A   Mostly Cloudy
1:56 AM 57.0 °F - 55.9 °F 96% 30.11 in 4.0 mi SE 4.6 mph - N/A   Scattered Clouds
2:56 AM 57.9 °F - 57.0 °F 97% 30.12 in 7.0 mi Calm Calm - N/A   Clear
3:11 AM 55.4 °F - 55.4 °F 100% 30.11 in 1.8 mi NNW 9.2 mph - N/A   Scattered Clouds
3:14 AM 57.2 °F - 55.4 °F 94% 30.12 in 2.0 mi NNW 12.7 mph - N/A   Mostly Cloudy
3:17 AM 57.2 °F - 55.4 °F 94% 30.12 in 3.0 mi NW 18.4 mph 24.2 mph N/A Thunderstorm Mostly Cloudy
3:26 AM 57.2 °F - 55.4 °F 94% 30.11 in 5.0 mi North 15.0 mph 29.9 mph 0.03 in Rain , Thunderstorm Light Thunderstorms and Rain
3:31 AM 57.2 °F - 55.4 °F 94% 30.12 in 1.8 mi North 16.1 mph 24.2 mph 0.13 in Rain , Thunderstorm Heavy Thunderstorms and Rain
3:35 AM 57.2 °F - 55.4 °F 94% 30.13 in 1.0 mi NNW 11.5 mph 24.2 mph 0.24 in Rain , Thunderstorm Heavy Thunderstorms and Rain
3:47 AM 57.2 °F - 55.4 °F 94% 30.11 in 1.5 mi NNE 4.6 mph - 0.46 in Rain , Thunderstorm Heavy Thunderstorms and Rain
3:56 AM 57.0 °F - 55.0 °F 93% 30.15 in 3.0 mi Calm Calm - 0.50 in Rain , Thunderstorm Heavy Thunderstorms and Rain
4:56 AM 57.0 °F - 55.0 °F 93% 30.13 in 5.0 mi Calm Calm - 0.11 in Rain , Thunderstorm Light Thunderstorms and Rain
5:18 AM 55.4 °F - 55.4 °F 100% 30.11 in 6.0 mi Calm Calm - 0.02 in Rain Light Rain
5:30 AM 55.4 °F - 55.4 °F 100% 30.12 in 1.8 mi Calm Calm - 0.03 in Rain Light Rain
5:41 AM 55.4 °F - 53.6 °F 94% 30.13 in 4.0 mi West 5.8 mph - 0.03 in Rain Light Rain
5:56 AM 55.9 °F - 55.0 °F 97% 30.18 in 6.0 mi WNW 4.6 mph - 0.04 in Rain Light Rain
6:37 AM 55.4 °F - 55.4 °F 100% 30.15 in 1.2 mi West 3.5 mph - 0.04 in Rain Light Rain
6:53 AM 55.9 °F - 55.0 °F 97% 30.16 in 3.0 mi Calm Calm - 0.07 in Rain Rain
6:59 AM 55.4 °F - 55.4 °F 100% 30.10 in 1.8 mi SE 8.1 mph - 0.01 in Rain Light Rain
7:09 AM 55.4 °F - 55.4 °F 100% 30.13 in 3.0 mi North 9.2 mph - 0.02 in Rain Light Rain
7:14 AM 55.4 °F - 55.4 °F 100% 30.14 in 2.0 mi North 10.4 mph - 0.02 in Rain Light Rain
7:23 AM 55.4 °F - 53.6 °F 94% 30.12 in 2.0 mi North 10.4 mph 19.6 mph 0.02 in   Overcast
7:48 AM 53.6 °F - 51.8 °F 94% 30.18 in 2.0 mi NNW 15.0 mph - 0.02 in   Overcast
7:56 AM 53.1 °F - 51.1 °F 93% 30.21 in 2.0 mi North 12.7 mph - 0.02 in   Overcast
8:03 AM 53.6 °F - 51.8 °F 94% 30.18 in 10.0 mi North 8.1 mph - N/A   Overcast
8:56 AM 51.1 °F - 48.9 °F 92% 30.25 in 10.0 mi North 8.1 mph - N/A   Overcast
9:07 AM 51.8 °F - 48.2 °F 88% 30.22 in 10.0 mi North 10.4 mph - 0.00 in Rain Light Rain
9:46 AM 50.0 °F - 48.2 °F 94% 30.22 in 10.0 mi North 10.4 mph - N/A   Overcast
9:56 AM 50.0 °F - 48.0 °F 93% 30.27 in 10.0 mi North 9.2 mph - N/A   Overcast
10:16 AM 50.0 °F - 46.4 °F 87% 30.24 in 9.0 mi North 10.4 mph - N/A   Overcast
10:56 AM 48.0 °F - 46.0 °F 93% 30.28 in 7.0 mi North 11.5 mph - N/A   Overcast
11:56 AM 46.9 °F - 45.0 °F 93% 30.26 in 6.0 mi North 9.2 mph - N/A   Overcast
12:56 PM 48.0 °F - 45.0 °F 89% 30.26 in 5.0 mi NNW 10.4 mph - N/A   Overcast
1:56 PM 48.0 °F - 44.1 °F 86% 30.26 in 8.0 mi NNW 9.2 mph - N/A   Overcast
2:56 PM 48.0 °F - 44.1 °F 86% 30.26 in 6.0 mi North 10.4 mph - N/A   Overcast
3:56 PM 46.9 °F - 43.0 °F 86% 30.29 in 6.0 mi North 10.4 mph - N/A   Overcast
4:13 PM 46.4 °F 42.4 °F 42.8 °F 87% 30.27 in 6.0 mi NNW 8.1 mph - N/A   Overcast
4:56 PM 46.0 °F 41.4 °F 41.0 °F 83% 30.32 in 8.0 mi North 9.2 mph - N/A   Overcast
5:56 PM 46.0 °F 42.5 °F 41.0 °F 83% 30.34 in 8.0 mi North 6.9 mph - N/A   Overcast
6:56 PM 46.0 °F 41.4 °F 39.9 °F 79% 30.36 in 8.0 mi North 9.2 mph - N/A   Overcast
7:56 PM 46.0 °F 42.5 °F 39.9 °F 79% 30.36 in 9.0 mi North 6.9 mph - N/A   Overcast
8:56 PM 45.0 °F 42.6 °F 39.0 °F 80% 30.36 in 9.0 mi North 4.6 mph - N/A   Overcast
9:56 PM 45.0 °F 43.5 °F 39.0 °F 80% 30.36 in 9.0 mi North 3.5 mph - N/A   Overcast
10:56 PM 45.0 °F 40.6 °F 39.0 °F 80% 30.36 in 8.0 mi North 8.1 mph - N/A   Overcast
11:56 PM 44.1 °F 40.1 °F 37.9 °F 79% 30.36 in 9.0 mi NNE 6.9 mph - N/A   Overcast